Kezdőlap
METAR-TAF:

METAR-TAF

Repülőterek :

Hemphill County Airport

Canadian, Texas, Amerikai Egyesült Államok

földrajzi szélesség: 35-54N, földrajzi hosszúság: 100-24W, magasság: 730 m

Jelenlegi meteorológiai megfigyelések

A jelentés 34 perccel ezelõtt készült, 14:55 UTC
Déli szél 21 kt széllökések: 30 kt
Hőmérséklet 26°C
Páratartalom 70%
Légköri nyomás 1007 hPa
Látótávolság: 16.1 km
Derült ég

METAR: KHHF 181455Z AUTO 19021G30KT 10SM CLR 26/20 A2973 RMK AO2 T02600200

Idő: 10:29 (15:29 UTC)


TAF: hiányzik

Meteorológiai megfigyelések és előrejelzések több, mint 4000 repülőtéren (METAR és TAF jelentéseket).

A térképen piros és sárga pontok jelzik az elérhető meteorológiai állomásokat.

Mozgassa az egeret a pont fölött, hogy megjelenjen az állomás neve.

Azután kattintson az időjárási megfigyelések és előrejelzések megtekintéséhez.

A térkép megváltoztatása: kattintson a fekete keresztel jelölt zöld gombra ráközelítéshez, a vonallal jelölt zöld gombra távolításhoz, vagy a zöld nyilakra a szomszédos térképek eléréséhez.


METAR-TAF: